Theta_e
316 314 316 314 306 307 308 307 306 303 303 304 304 306 306 306 306 305 302 302 302 300 300 301 303 304 305 306 306 304 303 303 302 302 301 302 303 304 306 307 306 306 305
315 316 314 308 310 308 308 307 307 304 305 305 305 305 305 305 304 304 304 303 303 302 302 302 302 304 304 304 303 303 302 302 302 301 301 301 303 303 304 306 305 305 304
316 317 312 311 309 308 307 307 308 307 306 307 305 306 306 306 305 305 304 305 303 303 302 301 301 301 301 301 302 303 303 303 302 301 301 301 301 303 305 305 304 304 304
318 315 310 308 308 307 308 308 308 307 308 307 307 306 306 306 306 306 305 305 305 304 303 302 301 301 300 300 301 301 302 301 301 300 299 299 300 302 303 303 303 303 305
317 309 308 309 309 308 308 308 308 308 308 307 306 306 306 306 306 306 306 305 305 304 302 302 302 301 301 300 300 300 300 299 299 299 299 298 299 301 302 302 303 303 305
310 307 309 310 309 308 308 307 307 308 307 304 305 306 306 306 306 306 307 306 305 303 301 300 299 299 299 300 301 300 301 300 299 298 298 298 298 298 301 302 303 304 305
307 309 310 309 308 308 308 307 306 305 303 305 305 306 306 306 306 307 308 306 304 302 301 300 298 298 298 298 299 299 299 298 298 297 298 298 298 297 298 301 303 305 305
310 310 310 309 309 308 307 306 305 304 304 305 306 305 304 306 307 306 304 303 302 302 301 300 298 297 297 296 296 296 297 297 297 298 298 297 297 297 301 302 303 305 305
310 310 310 309 307 308 306 305 305 304 305 307 305 304 304 305 304 303 302 301 302 302 301 301 300 299 298 297 296 295 297 297 297 296 296 297 297 299 301 304 304 306 306
311 311 306 308 308 307 306 306 305 306 305 306 304 304 304 304 303 302 301 301 302 302 302 302 301 301 300 298 296 296 296 296 296 296 297 296 296 298 301 302 304 305 304
309 305 308 309 308 307 306 305 305 305 305 305 304 305 305 304 302 301 301 301 302 302 303 303 302 301 301 300 298 296 296 295 296 297 295 295 295 296 299 301 303 304 305
308 310 309 308 308 306 304 304 304 304 305 305 305 304 304 303 302 301 301 301 302 302 302 302 302 301 301 301 300 297 296 295 295 295 295 295 295 297 300 302 302 304 305
309 308 307 307 306 305 304 305 305 306 306 305 305 305 304 302 301 300 300 300 301 302 302 302 302 301 301 301 300 300 297 296 296 295 295 295 296 297 298 300 302 302 305
306 307 308 307 304 304 305 304 305 306 306 305 305 305 304 302 301 300 300 300 301 302 303 302 302 302 301 300 301 300 299 296 296 295 295 295 296 298 299 300 302 303 305
307 307 306 304 303 303 305 305 305 306 306 305 305 303 302 301 301 300 300 300 301 301 302 301 302 302 302 301 301 300 299 298 297 296 296 296 296 298 299 300 301 302 303
307 307 305 303 304 305 305 306 305 306 305 305 303 302 301 301 300 300 300 301 301 301 301 300 300 300 300 299 299 298 298 297 297 296 296 296 296 297 298 300 301 302 302
307 304 303 305 305 305 305 305 305 306 305 304 303 301 300 301 301 301 301 300 300 300 300 299 299 299 299 298 297 297 297 296 296 297 295 295 296 297 298 300 300 301 302
308 304 304 305 304 305 305 304 305 305 305 304 302 301 301 301 301 300 300 299 299 299 299 298 298 298 298 297 296 296 296 296 296 296 296 296 296 297 298 299 300 301 302
304 303 304 304 304 305 304 304 304 305 304 303 302 302 301 300 301 300 299 299 299 299 298 298 298 298 297 296 296 296 295 295 295 295 296 296 296 296 297 299 300 301 301
303 304 305 306 305 305 304 304 304 305 303 302 302 302 300 298 298 298 299 299 299 299 298 298 298 297 296 295 295 294 294 295 295 295 295 296 296 296 297 299 300 301 301
304 305 305 305 304 304 303 305 305 304 303 302 302 301 298 298 298 299 299 299 300 299 298 298 297 296 295 294 294 294 294 294 294 294 294 295 297 297 297 299 300 300 301
304 305 305 304 304 303 304 305 304 304 303 302 302 300 299 299 299 299 300 300 300 299 299 297 296 295 295 294 294 294 294 295 295 294 294 295 296 298 299 300 300 301 301
305 304 304 304 303 302 303 304 303 303 302 302 301 300 298 299 299 299 300 299 300 300 299 297 296 296 296 295 295 295 296 296 296 296 295 295 296 298 299 300 301 301 302
304 304 304 302 302 303 304 304 303 302 301 301 300 299 298 299 299 299 299 300 299 300 299 297 296 296 296 296 296 297 297 297 297 296 296 297 297 298 299 300 301 301 302
304 304 303 302 303 303 303 303 302 302 301 300 299 298 298 299 299 299 300 300 298 298 298 296 296 296 296 297 298 298 298 298 298 297 297 298 297 298 299 301 301 301 302
304 303 300 302 303 303 303 302 302 301 299 298 298 297 298 299 300 300 300 299 298 298 297 297 297 297 298 298 298 298 298 299 298 298 298 298 299 299 300 300 301 301 302
Wind_Speed
4 2 4 7 7 7 7 9 12 12 11 11 11 9 12 14 16 21 19 21 22 20 16 13 11 16 17 15 18 22 22 25 27 31 30 28 25 24 22 23 25 27 29
2 3 5 5 5 8 9 11 13 12 11 15 13 13 14 15 17 21 23 24 26 24 19 17 17 18 18 18 20 22 25 22 24 31 29 27 27 25 24 24 25 26 27
4 7 6 5 8 8 9 11 11 14 14 17 17 15 15 16 17 22 22 25 26 24 24 18 20 23 25 24 23 23 22 21 23 27 30 30 28 28 23 23 25 26 23
7 7 6 7 8 9 10 12 15 15 17 17 18 17 17 16 18 21 23 26 25 27 26 21 22 23 23 24 23 23 22 24 26 27 28 29 26 26 24 26 29 27 25
8 7 5 6 9 11 11 13 15 14 15 18 20 17 18 19 19 22 23 26 27 29 30 22 22 25 22 22 22 22 23 23 23 24 26 26 26 25 25 25 27 26 23
6 3 3 7 8 10 10 13 13 14 18 17 13 15 19 21 21 22 24 24 27 31 31 27 24 24 20 19 17 20 23 25 28 26 25 22 23 23 24 23 24 26 28
3 1 3 5 6 10 14 15 14 15 14 9 14 19 22 22 23 24 22 20 27 30 28 27 25 18 18 19 19 19 23 24 21 19 17 19 25 25 21 22 20 21 22
1 1 3 8 11 12 13 13 13 14 10 16 17 17 23 20 17 17 18 23 28 26 23 23 23 19 20 22 23 24 22 19 18 16 17 18 18 18 13 20 20 18 16
2 3 8 12 8 11 11 12 15 9 13 16 14 20 22 19 23 24 25 26 26 23 20 22 21 23 21 20 22 21 20 17 13 15 14 12 16 14 10 11 13 11 15
3 8 9 5 9 13 10 12 10 12 13 14 14 19 21 24 27 26 25 25 23 21 17 22 23 23 23 21 20 20 19 18 17 15 11 14 16 14 13 7 3 8 12
6 3 3 7 9 10 10 12 10 13 15 13 14 14 18 26 25 26 25 25 24 23 21 23 23 22 22 22 20 17 17 18 15 14 16 16 16 14 12 9 5 8 10
1 3 6 9 10 10 9 11 12 15 17 16 14 15 20 22 24 24 24 21 21 22 26 25 23 21 20 19 20 18 15 15 13 14 16 15 11 9 6 9 9 8 8
3 6 3 6 10 9 9 12 14 15 16 15 15 19 23 22 23 21 23 22 21 21 27 27 23 21 18 18 18 20 15 14 13 14 14 13 9 9 8 6 6 7 6
4 4 7 10 5 5 9 12 15 19 19 12 13 19 26 27 22 24 24 23 22 22 25 28 23 20 19 19 17 16 14 12 13 13 13 10 8 6 5 5 5 1 2
4 7 8 8 10 8 7 13 20 20 11 12 17 24 27 24 25 25 25 22 20 23 25 27 25 24 23 21 20 17 15 12 11 10 10 8 7 6 6 3 3 3 2
7 7 11 14 7 6 12 14 16 11 9 15 24 27 24 25 29 27 21 16 21 22 26 29 30 28 25 24 22 19 15 13 11 10 8 8 6 6 6 3 3 2 1
5 9 12 10 10 15 11 14 12 9 15 23 27 28 26 27 25 19 17 19 18 22 25 29 33 31 27 24 22 19 17 14 12 10 9 8 7 5 5 4 2 1 1
4 7 9 10 13 8 13 16 14 16 22 29 25 31 30 28 24 18 19 20 21 22 25 29 33 29 27 25 22 19 17 15 12 10 9 7 8 7 5 3 1 1 2
2 5 8 8 8 8 14 14 18 19 24 27 27 32 35 27 27 24 19 19 22 24 26 29 29 28 27 25 22 19 16 14 12 10 9 8 9 9 6 4 2 2 3
3 8 10 8 10 11 14 17 16 20 26 26 29 36 36 29 32 31 28 25 24 25 27 28 29 29 28 25 23 19 16 13 11 9 8 9 10 10 8 4 4 4 5
6 8 9 10 8 13 18 15 16 25 28 22 29 34 29 27 31 32 30 29 27 28 29 29 30 30 29 26 22 19 16 12 9 7 7 9 11 11 9 6 7 6 9
6 9 11 11 13 17 14 14 21 26 25 23 30 35 28 27 30 33 31 29 29 30 28 30 31 30 26 24 21 17 13 10 7 4 7 10 12 11 11 10 10 7 11
5 9 8 11 13 18 16 15 17 20 20 25 31 36 28 27 31 34 32 31 31 32 31 31 29 27 24 21 17 13 12 10 8 4 7 12 15 15 15 13 12 11 14
6 8 10 11 13 14 15 12 15 19 22 28 32 35 27 28 33 34 32 32 32 32 32 30 28 26 23 18 12 12 12 12 9 3 5 15 17 19 18 17 16 14 17
8 11 13 11 12 13 13 14 18 21 25 30 32 31 27 30 33 34 33 33 33 32 31 28 26 24 20 13 12 13 12 12 9 7 9 16 18 20 21 20 18 15 17
8 13 13 7 10 14 16 18 22 27 30 29 28 28 29 32 34 33 33 34 33 31 28 28 26 22 19 16 14 14 12 10 8 10 11 17 19 21 23 22 19 17 17
Wind_Direction
182 248 300 295 304 315 329 343 352 348 353 1 8 355 350 349 346 339 351 358 354 345 349 345 335 321 317 314 303 305 312 313 310 316 322 328 321 328 326 320 322 329 331
233 307 311 306 320 334 335 347 351 353 1 9 359 350 352 352 358 356 359 357 10 9 357 344 335 325 323 315 313 309 308 306 309 315 323 327 325 325 323 324 325 325 331
299 310 309 325 344 340 347 2 358 2 3 11 357 337 340 344 344 344 348 349 355 357 357 344 337 330 323 316 318 310 302 301 307 311 315 320 319 320 320 324 330 329 335
298 288 313 337 352 355 1 1 1 355 353 353 347 336 330 337 338 333 341 337 337 341 343 336 336 328 322 320 313 310 310 309 309 311 314 317 313 309 317 326 332 333 337
288 296 325 349 4 359 353 350 350 344 337 336 336 335 331 332 338 333 329 328 331 331 335 326 318 321 316 310 309 315 312 313 315 314 316 316 312 312 319 329 328 329 335
288 303 338 350 350 340 335 332 328 329 329 334 344 338 333 330 336 330 316 319 324 328 329 330 321 311 316 311 306 310 308 310 309 310 311 308 311 309 308 317 325 332 335
308 15 344 322 315 318 323 325 326 336 344 353 343 337 332 324 320 319 312 317 324 327 333 337 334 326 324 318 320 308 306 312 304 308 299 305 304 319 308 308 316 323 322
152 266 302 293 301 313 329 330 337 349 352 347 338 335 332 332 337 337 328 323 327 332 338 348 356 350 342 330 324 322 317 314 313 307 300 308 306 307 309 299 305 314 321
262 273 285 296 309 332 326 339 340 346 343 334 333 343 348 343 340 338 334 333 334 337 346 354 347 346 340 339 331 330 334 331 321 330 310 310 304 284 286 298 286 320 333
266 285 295 316 328 330 324 347 336 338 333 326 325 336 339 341 341 341 336 338 335 336 346 351 346 343 345 341 334 332 330 335 330 329 318 320 317 295 287 324 320 340 347
287 311 338 332 336 336 336 341 330 326 319 314 317 327 335 338 344 340 337 339 335 343 341 338 340 341 344 346 341 322 324 327 333 325 331 330 316 289 271 282 325 313 342
44 340 325 327 324 329 330 336 330 326 319 309 308 325 336 345 346 344 333 331 338 344 346 339 336 336 338 343 345 334 325 323 325 332 336 336 339 329 266 278 272 274 288
338 334 336 337 334 328 321 329 338 335 338 321 306 322 335 341 342 337 333 336 338 344 345 342 335 333 337 341 344 346 336 316 316 325 335 341 340 344 338 319 302 277 283
334 324 340 336 351 320 338 342 339 339 336 328 321 331 337 339 339 336 335 336 333 339 342 346 341 334 334 337 337 338 337 329 319 316 325 326 332 335 338 320 336 246 265
352 344 348 5 327 335 2 350 336 336 334 327 335 339 341 345 338 332 327 327 331 339 337 341 346 346 341 336 332 329 331 328 325 314 311 319 316 331 345 338 327 332 280
358 6 8 2 37 19 345 337 342 339 333 341 343 343 342 338 330 325 322 323 330 334 334 340 345 343 338 334 330 330 326 322 317 310 294 297 291 311 324 333 331 344 354
42 31 24 46 14 354 342 345 355 355 350 349 349 350 337 332 333 328 327 322 327 328 331 336 338 341 337 334 331 327 325 319 309 300 294 267 251 264 300 315 314 335 263
19 31 27 17 2 1 344 350 353 347 347 349 351 350 344 338 335 324 318 319 324 327 330 330 333 335 335 334 332 326 321 318 310 292 279 263 230 244 258 259 265 19 61
6 15 354 341 349 336 341 349 344 340 345 351 349 348 349 344 349 351 345 333 325 326 328 330 333 335 336 334 329 323 318 314 310 297 266 247 232 230 244 233 211 167 135
29 5 11 1 3 341 352 344 339 345 352 351 348 348 351 357 0 357 352 345 338 335 335 332 333 337 337 335 331 326 318 309 299 286 266 235 222 218 219 207 191 171 161
46 26 8 360 11 352 348 347 343 352 353 346 346 349 359 352 353 353 350 346 341 339 336 336 337 338 337 335 334 330 324 315 297 269 249 226 212 213 202 190 166 158 155
27 14 10 14 357 354 356 342 346 349 347 342 343 350 354 350 351 351 349 346 341 340 342 341 341 339 338 337 338 337 335 333 321 272 224 211 199 192 183 169 152 140 150
16 357 359 4 358 351 350 342 342 345 345 342 345 350 350 350 350 350 348 348 346 345 345 347 346 345 347 346 346 348 347 350 346 316 208 193 185 179 169 164 151 139 145
27 1 351 0 353 348 352 333 347 347 344 342 346 350 349 350 350 350 349 349 350 349 350 353 351 352 353 358 15 17 10 358 356 330 184 179 175 172 165 163 149 140 149
10 358 351 354 359 351 352 346 343 344 343 343 344 349 351 351 351 351 351 352 354 356 357 358 -0 2 6 16 23 21 12 14 34 49 149 162 165 166 164 159 151 144 154
354 349 349 340 349 347 344 345 344 343 342 343 349 355 352 353 352 352 354 355 359 2 5 7 11 15 20 25 26 22 24 29 42 67 123 151 155 159 161 158 154 150 145